Cedar Falls, IA

5:35 PM CST on February 09, 2016 (GMT -0600)
Waterloo Municipal

Weather History for KALO - September, 2013

Change the Weather History Date:

Saturday, September 7, 2013

  Actual Average Record
Temperature  
Mean Temperature 80 °F 67 °F  
Max Temperature 91 °F 79 °F 102 °F (1939)
Min Temperature 68 °F 55 °F 37 °F (1956)
Degree Days  
Heating Degree Days 0 2  
Month to date heating degree days 8 12  
Since 1 July heating degree days 28 32  
Cooling Degree Days 15 4  
Month to date cooling degree days 46 31  
Year to date cooling degree days 742 743  
Growing Degree Days 30 (Base 50)    
Moisture  
Dew Point 65 °F    
Average Humidity 70    
Maximum Humidity 93    
Minimum Humidity 47    
Precipitation  
Precipitation 0.01 in 0.09 in 1.95 in (2001)
Month to date precipitation 0.01 0.68  
Year to date precipitation 34.30 26.96  
Snow  
Snow 0.00 in 0.00 in - ()
Month to date snowfall 0.0 0.0  
Since 1 July snowfall 0.0 0.0  
Since 1 September snowfall 0.0 0.0  
Snow Depth 0.00 in    
Sea Level Pressure  
Sea Level Pressure 29.90 in    
Wind  
Wind Speed 5 mph (South)    
Max Wind Speed 14 mph    
Max Gust Speed 17 mph    
Visibility 10 miles    
Events Thunderstorm    
T = Trace of Precipitation, MM = Missing Value Source: NWS Daily Summary

Daily Weather History Graph

Daily Weather History Graph

Search for Another Location

Airport or City:

Trip Planner

Search our weather history database for the weather conditions in past years. The results will help you decide how hot, cold, wet, or windy it might be!

Date:

Astronomy

Sep. 07, 2013 Rise Set
Actual Time 6:41 AM CDT 7:32 PM CDT
Civil Twilight 6:12 AM CDT 8:01 PM CDT
Nautical Twilight 5:38 AM CDT 8:35 PM CDT
Astronomical Twilight 5:03 AM CDT 9:10 PM CDT
Moon 9:00 AM CDT (9/7) 8:27 PM CDT (9/7)
Length of Visible Light 13h 48m
Length of Day
12h 51m
Waxing Crescent, 5% of the Moon is Illuminated
Sep 7
Waxing Crescent
Sep 12
First Quarter
Sep 19
Full
Sep 26
Last Quarter
Oct 4
New

Hourly Weather History & Observations

Time (CDT) Temp. Heat Index Dew Point Humidity Pressure Visibility Wind Dir Wind Speed Gust Speed Precip Events Conditions
12:54 AM 72.0 °F - 59.0 °F 64% 29.93 in 10.0 mi South 6.9 mph - N/A   Clear
1:54 AM 71.1 °F - 59.0 °F 66% 29.93 in 10.0 mi South 5.8 mph - N/A   Clear
2:54 AM 70.0 °F - 60.1 °F 71% 29.93 in 10.0 mi South 3.5 mph - N/A   Clear
3:54 AM 69.1 °F - 61.0 °F 75% 29.92 in 10.0 mi SSE 4.6 mph - N/A   Clear
4:54 AM 69.1 °F - 61.0 °F 75% 29.91 in 10.0 mi South 5.8 mph - N/A   Clear
5:54 AM 69.1 °F - 61.0 °F 75% 29.91 in 10.0 mi South 6.9 mph - N/A   Clear
6:54 AM 69.1 °F - 62.1 °F 78% 29.92 in 10.0 mi SSE 4.6 mph - N/A   Clear
7:12 AM 69.8 °F - 62.6 °F 78% 29.93 in 10.0 mi SSE 5.8 mph - N/A Thunderstorm Thunderstorm
7:51 AM 69.8 °F - 62.6 °F 78% 29.94 in 10.0 mi SE 3.5 mph - 0.00 in   Clear
7:54 AM 69.1 °F - 63.0 °F 81% 29.92 in 10.0 mi ESE 3.5 mph - 0.00 in   Clear
8:54 AM 72.0 °F - 63.0 °F 73% 29.88 in 10.0 mi SE 9.2 mph - N/A   Mostly Cloudy
9:03 AM 73.4 °F - 62.6 °F 69% 29.92 in 10.0 mi South 5.8 mph - N/A Thunderstorm Partly Cloudy
9:18 AM 73.4 °F - 64.4 °F 73% 29.92 in 10.0 mi South 5.8 mph - N/A   Clear
9:54 AM 77.0 °F - 64.9 °F 66% 29.91 in 10.0 mi SSW 4.6 mph - N/A   Clear
10:54 AM 81.0 °F 82.7 °F 64.9 °F 58% 29.90 in 10.0 mi SW 11.5 mph - N/A   Clear
11:54 AM 84.0 °F 86.3 °F 66.0 °F 55% 29.89 in 10.0 mi West 5.8 mph - N/A   Clear
12:54 PM 87.1 °F 89.9 °F 66.9 °F 51% 29.86 in 10.0 mi Variable 5.8 mph - N/A   Clear
1:54 PM 88.0 °F 91.4 °F 68.0 °F 51% 29.86 in 10.0 mi Variable 4.6 mph - N/A   Clear
2:54 PM 89.1 °F 92.1 °F 66.9 °F 48% 29.86 in 10.0 mi Variable 5.8 mph - N/A   Clear
3:54 PM 89.1 °F 92.9 °F 68.0 °F 50% 29.86 in 10.0 mi West 6.9 mph - N/A   Clear
4:54 PM 87.1 °F 90.6 °F 68.0 °F 53% 29.86 in 10.0 mi West 4.6 mph - N/A   Clear
5:54 PM 84.0 °F 90.2 °F 73.0 °F 69% 29.85 in 10.0 mi Calm Calm - 0.01 in   Clear
6:54 PM 81.0 °F 85.8 °F 73.0 °F 77% 29.86 in 10.0 mi NNE 4.6 mph - 0.00 in   Scattered Clouds
7:54 PM 79.0 °F - 72.0 °F 79% 29.87 in 10.0 mi North 5.8 mph - N/A   Clear
8:54 PM 75.9 °F - 71.1 °F 85% 29.88 in 10.0 mi NNW 3.5 mph - N/A   Clear
9:54 PM 73.9 °F - 71.1 °F 91% 29.89 in 9.0 mi NE 4.6 mph - N/A   Clear
10:54 PM 73.0 °F - 70.0 °F 90% 29.89 in 8.0 mi Calm Calm - N/A   Clear
11:54 PM 72.0 °F - 69.1 °F 91% 29.89 in 8.0 mi NNE 3.5 mph - N/A   Clear